Regional Weather Roundup
Issued by NWS

Home | Current Version | Previous Version | Graphics & Text | Print | Product List | Glossary On
Versions: 1 2 3 4 5 6 7 8 9 10 11 12 13 14 15 16 17 18 19 20 21 22 23 24 25 26 27 28 29 30 31 32 33 34 35 36 37 38 39 40 41 42 43 44 45 46 47 48 49 50
000
ASUS43 KMKX 250511
RWRWI

WISCONSIN REGIONAL WEATHER ROUNDUP
NATIONAL WEATHER SERVICE MILWAUKEE/SULLIVAN WI
1200 AM CDT FRI MAY 25 2018

NOTE: "FAIR" INDICATES FEW OR NO CLOUDS BELOW 12,000 FEET WITH NO
SIGNIFICANT WEATHER AND/OR OBSTRUCTIONS TO VISIBILITY.

WIZ001-002-006>008-014>016-023>028-250600-
NORTHWEST WISCONSIN

CITY           SKY/WX    TMP DP  RH WIND       PRES   REMARKS
SUPERIOR ARPT  FOG       50  50 100 CALM      29.84S VSB 1
ASHLAND        FAIR      69  67  93 S9        29.83F
HAYWARD        FAIR      74  59  59 S12       29.87F
SIREN          MOCLDY    72  58  62 S8        29.86F
CUMBERLAND     MOCLDY    64  61  88 SE12      29.89F
RICE LAKE      LGT RAIN  66  63  90 SW5       29.94F
CHETEK         LGT RAIN  65  64  93 SW10G17   29.92F
LADYSMITH      FAIR      73  58  58 SW15G26   29.95S
EAU CLAIRE     LGT RAIN  68  62  81 NW12      29.93F
MENOMONIE      RAIN      66  64  93 NW7       29.95S
NEW RICHMOND   MOCLDY    68  60  75 S10       29.92R
OSCEOLA        MOCLDY    68  62  80 S17       29.92R
$$

WIZ003>005-009-010-017-018-250600-
NORTH CENTRAL WISCONSIN

CITY           SKY/WX    TMP DP  RH WIND       PRES   REMARKS
MANITOWISH WTR FAIR      62  62 100 SE7       29.93F
ARBOR VITAE    FAIR      63  62  96 SE3       29.93F
WOODRUFF       FAIR      63  62  96 SE3       29.93F
RHINELANDER    FAIR      66  64  93 SE6       29.96F
EAGLE RIVER    FAIR      62  62 100 SE5       29.95F
LAND O LAKES   FAIR      63  62  96 SE6       29.96F
PHILLIPS       FAIR      73  64  72 SW9       29.92S
TOMAHAWK       MOCLDY    71  60  70 S5        29.94F
MEDFORD        FAIR      73  62  68 SW14G22   29.96R
MERRILL        NOT AVBL
$$

WIZ029-030-035-036-043>047-250600-
CENTRAL WISCONSIN

CITY           SKY/WX    TMP DP  RH WIND       PRES   REMARKS
WAUSAU         MOCLDY    73  62  68 S5        29.93F
MOSINEE        MOCLDY    68  61  77 S7        29.96F
MARSHFIELD     FAIR      71  63  75 S8        29.94F
STEVENS POINT  FAIR      70  60  69 S6        29.97F
WAUPACA        FAIR      69  61  74 CALM      29.97F
WAUTOMA        FAIR      65  61  87 CALM      29.98F
WISC RAPIDS    FAIR      74  61  63 S7        29.96F
CAMP DOUGLAS   FAIR      74  64  70 S12       29.95F
$$

WIZ011>013-019>022-031-037>040-048>050-250600-
NORTHEAST WISCONSIN

CITY           SKY/WX    TMP DP  RH WIND       PRES   REMARKS
ANTIGO         MOCLDY    71  60  68 SW10      29.96F
SHAWANO        FAIR      74  60  62 S3        29.95F
OCONTO         FAIR      66  57  72 CALM      29.94F
STURGEON BAY   FAIR      69  54  58 S12       29.96F
GREEN BAY      FAIR      68  58  70 S7        29.96F
MANITOWOC      NOT AVBL
APPLETON       FAIR      68  55  64 S8        29.96F
CLINTONVILLE   FAIR      73  58  59 S6        29.95F
OSHKOSH        FAIR      70  60  70 S9        29.98S
$$

WIZ032>034-041-042-053>061-250600-
SOUTHWEST WISCONSIN

CITY           SKY/WX    TMP DP  RH WIND       PRES   REMARKS
LA CROSSE      FAIR      76  66  71 S8        29.93F
SPARTA         FAIR      75  64  67 S7        29.95F
VIROQUA        FAIR      74  64  70 S8        29.98F
BOSCOBEL       FAIR      68  64  87 CALM      29.98S
PRAIRIE DU CHI FAIR      71  63  76 CALM      29.97S
PLATTEVILLE    FAIR      71  64  76 S6        30.01S
$$

WIZ056-057-062-063-064-067-068-250600-
SOUTH CENTRAL WISCONSIN

CITY           SKY/WX    TMP DP  RH WIND       PRES   REMARKS
REEDSBURG      FAIR      72  63  74 S7        29.98S
BARABOO/DELLS  FAIR      71  61  69 S6        29.98F
LONE ROCK      FAIR      68  65  90 CALM      29.98S
MINERAL POINT  FAIR      72  63  73 S6        30.01F
MADISON        FAIR      70  62  76 CALM      29.99F
MIDDLETON      FAIR      68  62  78 SW5       30.01S
WATERTOWN      FAIR      65  61  85 CALM      30.01S
MONROE         FAIR      70  59  68 S9        30.01S
JANESVILLE     FAIR      70  57  64 S6        30.01S
$$

WIZ051-052-058>065-066-070>072-250600-
SOUTHEAST WISCONSIN

CITY           SKY/WX    TMP DP  RH WIND       PRES   REMARKS
MILWAUKEE      FAIR      68  53  58 S7        30.01S
WAUKESHA       FAIR      66  52  59 S5        30.03S
MILWAUKEE/TIMM FAIR      68  48  49 SW5       30.02F
RACINE         FAIR      70  52  52 S8        30.03F
BURLINGTON     FAIR      62  56  81 CALM      30.02S
KENOSHA        FAIR      67  52  58 S7        30.02S
FOND DU LAC    FAIR      68  58  70 S9        29.99F
SHEBOYGAN      FAIR      63  54  72 SW3       29.99F
WEST BEND      FAIR      66  52  59 S6        30.02S
JUNEAU         FAIR      67  58  72 S5        30.02S
$$

LSZ147-162-250600-
LAKE SUPERIOR

STATION/POSITION TIME  TEMP    WIND        PRES    WAVE
                       AIR SEA DIR/SP/G            HT/PER
                 (UTC) (F)     (DEG/KT/KT) (MB)    (FT/S)
W MID LAKE BUOY  0450   47 36  190/  2/  4 1010.1F   0
DEVILS ISLAND    0500   53      80/  7/  7 1009.6F
SAXON HARBOR     0440   72     190/  5/ 11 1009.5F
$$

LMZ867-665-643>646-250600-
LAKE MICHIGAN

STATION/POSITION TIME  TEMP    WIND        PRES    WAVE
                       AIR SEA DIR/SP/G            HT/PER
                 (UTC) (F)     (DEG/KT/KT) (MB)    (FT/S)
N MID LAKE BUOY  0450   44 38  200/ 12/ 14 1013.9F   1/ 3
NORTHPORT PIER   0440   67     170/  3/  6 1013.5F
KEWAUNEE LAKESHO 0448   53     180/  9/ 10 1014.3F
SHEBOYGAN LAKESH 0500   68     200/ 11/ 11 1015.4F
PORT WASHINGTON  0440   59     260/  2/  2 1016.9S
ATWATER BUOY     0407   57 50  170/  8/  8 1016.4    1
MILWAUKEE LAKESH 0450   69     190/  6/  7   N/A
S MID LAKE BUOY  0450   53 39  150/ 10/ 10 1017.0F   0
KENOSHA   LAKESH 0500   67                 1016.3
$$

TC  - TEMPERATURE IN CELSIUS
VSB - VISIBILITY IN STATUTE MILES
WCI - WIND CHILL INDEX
HX  - HEAT INDEX





USA.gov is the U.S. government's official web portal to all federal, state and local government web resources and services.